Location: Grand Mazuras
(45.9128°N, 1.7636°E)
Time: 06:43:06
(UTC+00:00)

Cosmos 2034 Rocket - Pass Details

Date: 18 April 2021
Orbit: 959 x 999 km, 82.9° (Epoch: 05 May)

Event Time Altitude Azimuth Distance (km) Brightness Sun altitude
Rises 19:21:57 0° 186° (S) 3,639 6.8 -7.0°
Reaches altitude 10° 19:24:25 10° 186° (S) 2,701 6.1 -7.4°
Maximum altitude 19:30:37 90° 96° (E) 982 4.1 -8.4°
Drops below altitude 10° 19:36:56 10° 9° (N) 2,747 6.6 -9.4°
Sets 19:39:29 0° 9° (N) 3,706 7.3 -9.8°
